Weather History for West Palm Beach, FL

Change the Weather History Date:

Monday, February 17, 2014

  Actual Average Record
Temperature  
Mean Temperature 67 °F 68 °F  
Max Temperature 78 °F 77 °F 87 °F (2001)
Min Temperature 56 °F 59 °F 35 °F (1996)
Degree Days  
Heating Degree Days 0 2  
Month to date heating degree days 13 34  
Since 1 July heating degree days 115 191  
Cooling Degree Days 2 5  
Month to date cooling degree days 122 73  
Year to date cooling degree days 244 181  
Growing Degree Days 16 (Base 50)    
Moisture  
Dew Point 52 °F    
Average Humidity 60    
Maximum Humidity 80    
Minimum Humidity 40    
Precipitation  
Precipitation 0.00 in 0.10 in 2.33 in (1930)
Month to date precipitation 0.77 1.64  
Year to date precipitation 11.19 4.77  
Snow  
Snow 0.00 in - - ()
Month to date snowfall 0.0  
Since 1 July snowfall 0.0  
Snow Depth 0.00 in    
Sea Level Pressure  
Sea Level Pressure 30.18 in    
Wind  
Wind Speed 7 mph (NE)    
Max Wind Speed 15 mph    
Max Gust Speed 21 mph    
Visibility 10 miles    
Events      
T = Trace of Precipitation, MM = Missing Value Source: NWS Daily Summary

Daily Weather History Graph

Daily Weather History Graph

Search for Another Location

Airport:

Trip Planner

Search our weather history database for the weather conditions in past years. The results will help you decide how hot, cold, wet, or windy it might be!

Date:

Astronomy

Feb. 17, 2014 Rise Set
Actual Time 6:54 AM EST 6:14 PM EST
Civil Twilight 6:31 AM EST 6:37 PM EST
Nautical Twilight 6:04 AM EST 7:05 PM EST
Astronomical Twilight 5:37 AM EST 7:32 PM EST
Moon 8:46 PM EST (2/17) 8:12 AM EST (2/17)
Length of Visible Light 12h 06m
Length of Day
11h 19m
Waning Gibbous, 93% of the Moon is Illuminated
Feb 17
Waning Gibbous
Feb 22
Last Quarter
Mar 1
New
Mar 8
First Quarter
Mar 16
Full

Hourly Weather History & Observations

Time (EST) Temp. Dew Point Humidity Pressure Visibility Wind Dir Wind Speed Gust Speed Precip Events Conditions
12:53 AM 57.9 °F 51.1 °F 78% 30.17 in 10.0 mi NW 3.5 mph - N/A   Clear
1:53 AM 57.9 °F 52.0 °F 81% 30.15 in 10.0 mi Calm Calm - N/A   Clear
2:53 AM 57.0 °F 52.0 °F 83% 30.14 in 10.0 mi Calm Calm - N/A   Clear
3:53 AM 57.9 °F 51.1 °F 78% 30.14 in 10.0 mi NNW 3.5 mph - N/A   Clear
4:53 AM 57.9 °F 50.0 °F 75% 30.16 in 10.0 mi NNW 3.5 mph - N/A   Clear
5:53 AM 57.9 °F 48.0 °F 70% 30.17 in 10.0 mi North 3.5 mph - N/A   Clear
6:53 AM 57.0 °F 48.9 °F 74% 30.19 in 10.0 mi North 4.6 mph - N/A   Partly Cloudy
7:53 AM 62.1 °F 51.1 °F 67% 30.20 in 10.0 mi North 4.6 mph - N/A   Mostly Cloudy
8:53 AM 68.0 °F 51.1 °F 55% 30.22 in 10.0 mi North 8.1 mph - N/A   Mostly Cloudy
9:53 AM 73.9 °F 55.0 °F 52% 30.22 in 10.0 mi North 6.9 mph - N/A   Scattered Clouds
10:53 AM 75.9 °F 55.0 °F 48% 30.22 in 10.0 mi ENE 8.1 mph - N/A   Scattered Clouds
11:53 AM 77.0 °F 53.1 °F 43% 30.21 in 10.0 mi NE 13.8 mph - N/A   Scattered Clouds
12:53 PM 77.0 °F 52.0 °F 42% 30.19 in 10.0 mi Variable 6.9 mph - N/A   Partly Cloudy
1:53 PM 75.9 °F 55.0 °F 48% 30.16 in 10.0 mi East 12.7 mph - N/A   Scattered Clouds
2:53 PM 75.9 °F 55.0 °F 48% 30.16 in 10.0 mi East 11.5 mph 21.9 mph N/A   Scattered Clouds
3:53 PM 75.9 °F 53.1 °F 45% 30.16 in 10.0 mi NE 9.2 mph - N/A   Partly Cloudy
4:53 PM 73.9 °F 52.0 °F 46% 30.17 in 10.0 mi East 11.5 mph - N/A   Partly Cloudy
5:53 PM 72.0 °F 53.1 °F 51% 30.17 in 10.0 mi East 8.1 mph - N/A   Partly Cloudy
6:53 PM 71.1 °F 53.1 °F 53% 30.19 in 10.0 mi East 8.1 mph - N/A   Clear
7:53 PM 71.1 °F 53.1 °F 53% 30.21 in 10.0 mi East 8.1 mph - N/A   Clear
8:53 PM 70.0 °F 54.0 °F 57% 30.21 in 10.0 mi East 6.9 mph - N/A   Clear
9:53 PM 70.0 °F 54.0 °F 57% 30.21 in 10.0 mi East 6.9 mph - N/A   Clear
10:53 PM 68.0 °F 55.9 °F 65% 30.19 in 10.0 mi ESE 6.9 mph - N/A   Clear
11:53 PM 66.9 °F 55.9 °F 68% 30.18 in 10.0 mi SE 6.9 mph - N/A   Clear